CARTOSAT-3

Last updated on Sun Dec 07 2025 00:02:31 GMT+0000 (Coordinated Universal Time)

1 44804U 19081A 25340.63689321 .00007781 00000+0 37094-3 0 9999 2 44804 97.4592 40.2973 0013935 106.1850 254.0919 15.19293659334230
UTC large
Height (km)
Speed (km/s)
/
Latitude / Longitude
Inclination (degrees)
Orbital Period (minutes)
Azimuth
Elevation
Range (km)
Doppler Factor

Next 0 passes for location: London (51.5072 / 0.1276)

Sorry there are no passes over London.